Location: Namasale
(1.5000°N, 32.6167°E)
Time: 17:01:55
(UTC+00:00)

Courier 1B - Pass Details

Date: 20 April 2021
Orbit: 962 x 1209 km, 28.3° (Epoch: 18 May)

Event Time Altitude Azimuth Distance (km) Brightness Sun altitude
Rises 21:22:20 0° 250° (WSW) 3,934 - -75.2°
Reaches altitude 10° 21:27:37 10° 218° (SW) 3,040 - -75.7°
Maximum altitude 21:29:57 12° 200° (SSW) 2,949 - -75.9°
Drops below altitude 10° 21:32:18 10° 182° (S) 3,087 - -76.1°
Sets 21:37:51 0° 151° (SSE) 4,091 - -76.4°
